CAPE
114 177 810 1016 1145 1432 1135 1201 1252 814 899 1081 903 241 250 276 801 1019 959 996 1142 1051 1461 1102 1021 892 821 1258 1439 1410 1390 1421 1595 1636 1403 1155 990 922 774 557 299 97 78
57 141 845 971 878 1041 1162 1350 886 872 813 375 247 230 450 517 596 608 748 821 926 855 1048 1060 840 781 766 917 1087 1211 1431 1462 1540 1247 704 675 942 1064 1043 843 520 226 95
96 240 740 1028 585 773 765 1283 507 527 461 270 113 109 353 561 459 276 376 839 810 817 1156 788 731 660 824 857 1184 1255 1342 1256 1076 886 1004 778 962 1170 1143 1088 770 421 140
106 220 496 811 672 439 539 560 484 303 372 466 214 95 231 285 237 217 420 191 801 583 904 1024 681 1029 1026 1143 1224 1228 1215 1206 688 694 649 677 865 960 1059 987 1072 626 324
187 234 557 890 406 599 421 356 386 488 487 494 259 314 81 160 45 99 202 44 364 667 672 702 1018 888 1058 1051 1144 1055 1189 890 581 874 977 1017 920 977 1065 900 859 640 435
297 375 774 617 595 493 520 361 335 632 593 462 227 30 46 99 52 156 90 22 41 104 228 321 536 1072 952 1044 990 1068 784 662 837 713 952 705 919 756 837 725 799 716 496
258 286 640 740 866 795 539 388 349 728 628 336 32 0 13 29 2 0 0 0 0 4 0 62 336 661 855 855 945 1008 785 449 730 404 181 357 805 826 656 727 765 800 613
251 308 327 891 1171 1344 833 782 466 776 667 154 29 5 5 17 1 0 0 0 2 0 0 0 155 729 819 790 905 842 552 283 303 235 205 76 283 768 659 441 509 577 746
318 458 541 825 1188 1240 1106 865 597 727 678 194 90 23 0 1 0 0 0 0 0 0 0 0 0 466 676 767 955 812 338 72 122 167 43 6 135 674 680 423 322 485 805
615 649 741 1097 1310 1510 1342 1139 984 709 761 402 206 93 11 0 0 0 0 0 0 0 0 0 0 44 36 26 365 551 129 0 90 227 71 13 2 274 384 627 519 504 804
541 767 867 935 1210 1693 1626 1417 1276 1019 907 609 388 172 30 0 0 0 0 0 0 0 0 0 0 0 0 0 0 26 107 349 208 60 12 0 0 0 0 78 250 318 494
0 0 176 1063 1178 1425 1709 1504 1596 1436 1083 901 562 315 135 9 0 0 0 0 0 0 0 0 0 0 0 0 0 0 4 32 1 5 17 0 0 0 0 0 0 88 271
0 0 0 0 12 407 1651 1739 1754 1533 1493 1070 836 664 371 80 0 0 0 0 0 0 0 0 0 0 0 0 0 0 0 0 1 2 5 0 0 0 0 0 0 1 102
0 0 0 0 0 0 941 1375 1428 1467 1416 1359 1157 841 649 396 65 0 0 0 0 0 0 0 0 0 0 0 0 0 0 0 0 3 8 0 0 0 0 0 0 0 0
0 0 0 0 0 0 320 1076 1028 912 1088 1275 1124 1021 830 522 462 102 0 0 0 0 0 0 0 0 0 0 0 0 0 0 0 0 0 0 0 0 0 0 0 0 0
0 0 0 0 0 0 0 104 188 265 344 503 604 813 817 786 685 391 109 5 0 0 0 0 0 0 0 0 0 0 0 0 0 0 0 0 0 0 0 0 0 0 0
0 0 0 0 0 0 0 0 0 0 0 0 0 0 3 29 78 120 105 37 10 0 0 0 0 0 0 0 0 0 0 0 0 0 0 0 0 0 0 0 0 0 0
0 0 0 0 0 0 0 0 0 0 0 0 0 0 0 0 0 1 3 4 14 0 0 0 0 0 0 0 0 0 0 0 0 0 0 0 0 0 0 0 0 0 0
0 0 0 0 0 0 0 0 0 0 0 0 0 0 0 0 0 0 0 6 7 1 1 0 0 0 0 0 0 0 0 0 0 0 0 0 0 0 0 0 0 0 0
0 0 0 0 0 0 0 0 0 0 0 0 0 0 0 0 0 0 0 0 1 8 2 0 0 0 0 0 0 0 0 0 0 0 0 0 0 0 0 0 0 0 0
0 0 0 0 0 0 0 0 0 0 0 0 0 0 0 0 0 0 0 0 0 0 2 3 0 0 0 0 0 0 0 0 0 0 0 0 0 0 0 0 0 0 0
0 0 0 0 0 0 0 0 0 0 0 0 0 0 0 0 0 0 0 0 0 0 0 0 0 0 0 0 0 0 0 0 0 0 0 0 0 0 0 0 0 0 0
0 0 0 0 0 0 0 0 0 0 0 0 0 0 0 0 0 0 0 0 0 0 0 0 0 0 0 0 0 0 0 0 0 0 0 0 0 0 0 0 0 0 0
0 0 0 0 0 0 0 0 0 0 0 0 0 0 0 0 0 0 0 0 0 0 0 0 0 0 0 0 0 0 0 0 0 0 0 0 0 0 0 0 0 0 0
0 0 0 0 0 0 0 0 0 0 0 0 0 0 0 0 0 0 0 0 0 0 0 0 0 0 0 0 0 0 0 0 0 0 0 0 0 0 0 0 0 0 0
0 0 0 0 0 0 0 0 0 0 0 0 0 0 0 0 0 0 0 0 0 0 0 0 0 0 0 0 0 0 0 0 0 0 0 0 0 0 0 0 0 0 0
CIN
-273 -232 -59 -16 -0 -0 -1 -1 -0 -2 -2 -1 -0 -47 -44 -37 -2 -1 -2 -5 -2 -2 -0 -1 -3 -3 -3 -1 -0 -0 -1 -0 -0 -0 -0 -0 -0 -5 -7 -10 -48 -85 -97
-306 -240 -54 -18 -10 -1 -0 -0 -1 -2 -3 -22 -58 -68 -10 -12 -5 -2 -2 -4 -6 -9 -1 -3 -2 -6 -8 -3 -0 -1 -0 -0 -0 -2 -31 -35 -4 -0 -0 -0 -15 -60 -108
-268 -173 -50 -19 -42 -10 -8 -2 -25 -14 -23 -64 -161 -161 -33 -8 -17 -51 -27 -3 -4 -6 -2 -6 -4 -12 -2 -1 -1 -0 -0 -0 -7 -10 -8 -1 -1 -0 -0 -0 -2 -24 -85
-231 -147 -44 -37 -29 -47 -25 -14 -22 -64 -45 -30 -85 -173 -77 -62 -87 -86 -34 -93 -2 -13 -4 -1 -5 -3 -4 -1 -1 -0 -0 -0 -20 -19 -1 -1 -2 -2 -0 -0 -0 -1 -31
-157 -126 -41 -29 -58 -19 -30 -44 -40 -19 -15 -15 -86 -75 -220 -129 -271 -157 -103 -223 -56 -14 -5 -4 -0 -4 -3 -6 -2 -0 -0 -11 -23 -3 -0 -0 -0 -2 -0 -0 -1 -2 -5
-101 -68 -60 -62 -43 -39 -30 -59 -70 -17 -15 -32 -108 -359 -284 -194 -251 -150 -178 -242 -218 -150 -95 -70 -22 -0 -4 -4 -1 -0 -6 -13 -8 -0 -0 -2 -0 -8 -2 -5 -2 -0 -3
-68 -70 -41 -50 -35 -34 -49 -58 -67 -26 -30 -81 -330 -32 -410 -329 -115 -0 -0 -0 -0 -227 -0 -160 -73 -9 -7 -4 -2 -1 -8 -19 -0 -1 -24 -4 -0 -1 -6 -4 -3 -0 -1
-59 -59 -40 -37 -16 -0 -1 -2 -28 -8 -13 -126 -298 -452 -447 -372 -118 -0 -0 -0 -189 -0 -0 -0 -158 -13 -1 -7 -3 -2 -15 -28 -5 -18 -30 -74 -30 -1 -4 -16 -17 -9 -0
-44 -30 -12 -1 -4 -5 -1 -1 -13 -2 -2 -114 -186 -301 -80 -92 -0 -0 -0 -0 -0 -0 -0 -0 -0 -54 -22 -11 -3 -3 -52 -135 -50 -40 -48 -1 -78 -2 -1 -21 -40 -17 -0
-28 -19 -2 -0 -0 -0 -0 -7 -3 -6 -1 -46 -118 -189 -226 -0 -0 -0 -0 -0 -0 -0 -0 -0 -0 -217 -218 -209 -76 -29 -128 -0 -91 -28 -96 -133 -8 -35 -19 -2 -6 -15 -0
-34 -10 -6 -3 -0 -0 -0 -1 -13 -13 -12 -24 -57 -147 -236 -0 -0 -0 -0 -0 -0 -0 -0 -0 -0 -0 -0 -0 -0 -114 -156 -42 -69 -119 -0 -0 -0 -0 -0 -118 -49 -23 -4
-0 -0 -13 -1 -1 -0 -0 -0 -0 -0 -1 -13 -18 -55 -107 -234 -0 -0 -0 -0 -0 -0 -0 -0 -0 -0 -0 -0 -0 -0 -35 -98 -19 -3 -0 -0 -0 -0 -0 -0 -0 -112 -20
-0 -0 -0 -0 -8 -95 -2 -0 -0 -0 -0 -2 -9 -21 -52 -145 -0 -0 -0 -0 -0 -0 -0 -0 -0 -0 -0 -0 -0 -0 -0 -0 -0 -1 -0 -0 -0 -0 -0 -0 -0 -12 -81
-0 -0 -0 -0 -0 -0 -30 -8 -4 -1 -0 -0 -2 -11 -13 -44 -158 -0 -0 -0 -0 -0 -0 -0 -0 -0 -0 -0 -0 -0 -0 -0 -0 -1 -4 -0 -0 -0 -0 -0 -0 -0 -0
-0 -0 -0 -0 -0 -0 -76 -10 -9 -14 -3 -0 -1 -0 -8 -26 -31 -123 -0 -0 -0 -0 -0 -0 -0 -0 -0 -0 -0 -0 -0 -0 -0 -0 -0 -0 -0 -0 -0 -0 -0 -0 -0
-0 -0 -0 -0 -0 -0 -0 -70 -107 -75 -55 -29 -12 -2 -0 -0 -3 -31 -114 -66 -0 -0 -0 -0 -0 -0 -0 -0 -0 -0 -0 -0 -0 -0 -0 -0 -0 -0 -0 -0 -0 -0 -0
-0 -0 -0 -0 -0 -0 -0 -0 -0 -0 -0 -0 -0 -0 -11 -81 -84 -58 -61 -63 -73 -0 -0 -0 -0 -0 -0 -0 -0 -0 -0 -0 -0 -0 -0 -0 -0 -0 -0 -0 -0 -0 -0
-0 -0 -0 -0 -0 -0 -0 -0 -0 -0 -0 -0 -0 -0 -0 -0 -0 -0 -0 -0 -82 -0 -0 -0 -0 -0 -0 -0 -0 -0 -0 -0 -0 -0 -0 -0 -0 -0 -0 -0 -0 -0 -0
-0 -0 -0 -0 -0 -0 -0 -0 -0 -0 -0 -0 -0 -0 -0 -0 -0 -0 -0 -0 -0 -0 -0 -0 -0 -0 -0 -0 -0 -0 -0 -0 -0 -0 -0 -0 -0 -0 -0 -0 -0 -0 -0
-0 -0 -0 -0 -0 -0 -0 -0 -0 -0 -0 -0 -0 -0 -0 -0 -0 -0 -0 -0 -0 -0 -0 -0 -0 -0 -0 -0 -0 -0 -0 -0 -0 -0 -0 -0 -0 -0 -0 -0 -0 -0 -0
-0 -0 -0 -0 -0 -0 -0 -0 -0 -0 -0 -0 -0 -0 -0 -0 -0 -0 -0 -0 -0 -0 -0 -0 -0 -0 -0 -0 -0 -0 -0 -0 -0 -0 -0 -0 -0 -0 -0 -0 -0 -0 -0
-0 -0 -0 -0 -0 -0 -0 -0 -0 -0 -0 -0 -0 -0 -0 -0 -0 -0 -0 -0 -0 -0 -0 -0 -0 -1 -0 -0 -0 -0 -0 -0 -0 -0 -0 -0 -0 -0 -0 -0 -0 -0 -0
-0 -0 -0 -0 -0 -0 -0 -0 -0 -0 -0 -0 -0 -0 -0 -0 -0 -0 -0 -0 -0 -0 -0 -0 -0 -0 -0 -0 -0 -0 -0 -0 -0 -0 -0 -0 -0 -0 -0 -0 -0 -0 -0
-0 -0 -0 -0 -0 -0 -0 -0 -0 -0 -0 -0 -0 -0 -0 -0 -0 -0 -0 -0 -0 -0 -0 -0 -0 -0 -0 -0 -0 -0 -0 -0 -0 -0 -0 -0 -0 -0 -0 -0 -0 -0 -0
-0 -0 -0 -0 -0 -0 -0 -0 -0 -0 -0 -0 -0 -0 -0 -0 -0 -0 -0 -0 -0 -0 -0 -0 -0 -0 -0 -0 -0 -0 -0 -0 -0 -0 -0 -0 -0 -0 -0 -0 -0 -0 -0
-0 -0 -0 -0 -0 -0 -0 -0 -0 -0 -0 -0 -0 -0 -0 -0 -0 -0 -0 -0 -0 -0 -0 -0 -0 -0 -0 -0 -0 -0 -0 -0 -0 -0 -0 -0 -0 -0 -0 -0 -0 -0 -0
Wind_Speed
16 18 19 18 18 18 18 18 19 19 20 20 21 22 22 20 20 21 22 22 22 22 23 23 20 19 21 19 23 21 20 24 21 18 18 18 17 18 19 19 19 20 20
15 16 17 16 16 16 16 17 17 17 18 19 19 20 21 20 20 19 20 20 20 21 22 22 22 10 10 7 21 22 23 22 24 24 24 22 20 21 22 21 20 20 20
14 14 14 14 14 14 14 15 15 16 17 17 18 19 19 19 19 18 17 18 18 18 18 20 19 18 17 18 18 17 17 19 20 21 18 20 20 20 20 22 22 18 18
14 12 12 12 12 12 13 13 14 14 15 16 16 17 18 18 18 18 17 17 18 17 17 17 18 16 16 16 16 16 16 16 17 18 16 14 18 18 19 20 22 18 20
14 12 11 10 11 11 11 11 12 13 14 15 15 16 17 16 17 16 17 16 17 17 16 17 16 16 15 14 14 14 14 14 15 11 15 15 14 17 17 17 20 19 11
15 14 12 10 10 10 10 10 11 12 13 14 14 15 15 15 16 16 15 16 17 17 16 16 17 16 16 15 14 12 13 13 14 16 16 16 16 15 16 17 17 17 17
16 15 14 12 10 9 9 10 10 11 12 12 13 14 14 14 15 15 15 16 16 16 16 17 17 17 15 16 14 12 12 13 15 16 16 17 16 16 16 16 16 16 16
16 15 15 13 12 11 11 11 12 12 12 12 12 13 13 13 13 14 14 14 15 15 15 15 15 18 15 15 13 10 11 12 14 15 17 18 18 18 17 17 16 16 15
15 15 15 14 14 13 13 12 13 13 13 13 13 13 13 13 13 13 14 14 14 14 14 14 14 16 15 14 13 10 11 14 15 15 16 17 19 17 18 18 17 16 15
15 16 15 15 15 16 14 11 13 15 13 13 13 14 14 15 14 14 14 13 14 14 14 13 13 14 14 13 13 12 12 12 13 14 16 17 17 16 17 17 17 17 15
16 16 16 16 16 15 15 14 13 13 14 14 13 12 14 14 15 15 15 16 16 16 16 16 14 15 14 12 14 13 14 14 13 14 15 15 16 16 17 17 17 17 16
20 20 21 18 15 14 13 14 13 13 13 13 14 14 14 15 16 17 18 16 16 16 16 16 16 16 16 15 14 15 15 15 16 17 17 16 16 16 17 18 18 17 16
22 23 24 23 20 20 12 15 15 15 14 14 14 15 16 17 16 16 16 16 15 15 17 16 16 15 15 16 15 15 15 15 15 16 17 17 17 16 17 18 17 16 15
22 24 25 25 23 16 13 15 15 17 14 14 15 16 16 17 17 17 17 18 17 17 18 18 18 17 17 17 16 16 15 16 16 16 16 16 17 18 18 18 18 17 15
23 24 25 26 26 24 19 20 18 19 21 18 18 17 17 18 19 19 19 19 19 19 19 19 19 19 19 19 19 19 18 17 17 17 17 16 18 18 18 18 18 18 16
23 24 25 26 26 25 23 22 23 23 23 24 24 24 24 21 21 23 23 21 21 21 21 21 21 21 21 21 21 20 21 19 18 18 18 17 17 17 17 17 18 17 17
23 24 25 26 27 26 25 25 24 24 24 25 26 27 27 27 27 26 24 25 24 23 23 23 23 22 23 24 24 23 22 21 21 19 19 19 17 17 17 17 17 17 17
23 24 25 26 27 27 27 26 26 26 26 26 27 26 27 28 28 29 28 28 27 26 27 26 25 25 25 24 24 24 24 23 23 22 21 20 20 20 16 17 17 17 16
23 24 26 27 28 29 29 28 27 28 28 28 28 28 29 29 29 30 30 31 31 30 29 28 29 29 28 27 26 26 25 26 25 25 23 22 21 20 20 17 17 17 17
23 24 26 27 29 30 30 30 30 31 30 29 29 30 31 30 31 31 31 31 31 32 33 34 32 31 30 30 30 28 27 27 27 27 26 24 23 22 22 21 19 19 18
23 25 26 28 30 30 31 32 33 33 33 33 33 34 35 34 34 33 33 33 32 32 34 35 37 35 35 31 33 33 32 29 27 27 26 27 26 24 23 23 22 21 19
22 24 27 29 31 31 31 32 33 34 35 34 33 35 35 35 35 35 36 37 36 35 35 34 35 38 37 34 34 33 36 33 32 28 26 27 27 26 25 24 24 23 22
22 25 27 30 32 32 32 33 34 35 35 36 36 36 35 36 35 34 35 35 36 38 38 38 36 36 41 39 35 35 35 38 31 27 28 27 27 27 27 26 25 25 24
23 25 27 30 33 34 35 37 40 40 41 39 40 38 38 37 37 35 36 36 37 37 38 37 37 38 36 42 39 39 42 40 32 30 25 26 26 27 26 26 26 26 25
24 26 29 32 36 38 39 41 41 41 41 42 41 42 42 40 38 37 37 37 39 39 40 39 39 39 38 40 39 40 41 44 44 42 40 27 27 28 27 26 27 27 25
26 28 32 36 39 41 41 42 42 44 44 44 44 45 45 43 41 39 39 40 41 41 41 41 40 39 39 39 38 40 42 41 44 44 46 43 37 29 29 27 26 28 28
Wind_Direction
87 92 103 103 107 93 95 98 80 85 65 53 52 55 52 77 88 71 69 69 68 83 75 77 106 118 116 131 106 123 133 90 53 40 36 32 24 21 23 17 15 14 15
74 85 91 86 88 81 86 92 61 46 39 40 41 38 46 61 42 21 36 47 40 34 50 50 58 197 182 252 97 69 93 79 89 87 83 62 36 38 37 24 16 17 14
65 70 79 71 72 70 60 58 46 42 44 41 39 35 27 16 21 17 5 21 12 10 3 36 39 31 25 44 35 28 32 47 58 109 145 99 51 38 31 51 37 7 3
57 59 58 61 57 57 52 42 38 40 39 42 35 31 24 20 19 15 15 17 15 359 1 17 31 15 25 24 33 33 32 32 37 118 141 162 36 34 30 28 63 5 32
48 48 39 50 43 39 37 33 30 25 20 22 29 23 24 26 18 14 8 21 3 2 353 355 346 356 3 5 7 20 19 17 19 31 347 336 316 28 17 359 56 78 316
42 43 45 46 32 26 20 21 20 16 17 14 16 18 23 24 17 12 16 360 349 351 349 343 336 339 356 6 359 30 21 12 7 349 345 350 356 4 6 359 356 4 357
33 37 45 46 39 30 24 14 7 4 7 9 11 13 16 17 17 12 10 4 4 356 350 330 325 330 340 352 4 30 32 20 354 344 337 323 335 333 350 0 350 354 360
31 33 33 48 48 30 12 2 355 351 352 355 359 3 6 7 7 7 5 4 1 360 357 351 343 325 342 342 7 27 16 6 2 351 334 320 320 318 324 332 345 348 2
18 21 19 23 25 29 16 12 356 350 346 344 345 348 351 355 357 358 357 357 357 356 354 349 344 341 348 351 358 10 358 342 344 339 336 331 327 320 316 324 328 337 344
13 8 6 4 1 353 6 27 8 354 355 346 339 337 338 339 342 346 347 349 347 349 349 344 340 340 342 347 347 354 350 347 346 341 335 332 333 334 335 335 328 326 333
358 1 357 353 352 354 351 354 2 1 358 351 351 343 333 333 333 334 333 333 333 333 333 332 326 327 329 335 333 332 330 331 336 336 331 336 331 332 327 331 331 330 337
342 342 339 342 350 349 350 347 351 351 354 358 352 347 342 331 327 326 325 326 324 323 324 325 325 320 318 320 324 318 317 318 318 316 321 327 325 327 324 323 322 328 334
336 334 330 330 334 331 345 340 342 340 341 342 342 342 339 334 330 325 322 322 321 320 317 318 319 319 318 316 315 315 314 312 314 314 312 316 317 321 321 319 319 323 330
343 341 338 334 336 342 338 336 334 333 335 335 335 331 331 332 331 326 323 319 315 312 310 309 309 309 309 309 309 309 308 306 307 309 311 312 312 313 315 316 315 317 323
351 348 345 343 340 337 338 332 333 329 325 327 326 326 324 322 321 321 319 317 314 312 308 305 303 302 302 302 302 302 302 303 302 303 305 309 308 309 311 313 314 312 314
354 353 352 351 352 352 348 340 332 329 326 324 320 318 316 314 312 312 312 312 310 308 307 305 301 298 296 296 295 295 295 297 298 299 301 305 304 305 306 308 309 309 308
0 359 356 354 354 353 353 351 346 339 332 325 320 317 314 312 310 308 304 304 304 304 302 302 300 298 295 293 290 290 289 289 291 293 295 297 301 300 300 302 304 305 303
2 1 -0 358 356 353 350 348 345 343 340 336 333 328 321 314 309 304 301 298 296 297 297 294 295 295 294 292 290 287 286 286 285 286 289 291 293 295 297 295 298 299 299
0 356 354 351 348 347 347 347 345 342 339 336 333 330 326 324 319 310 304 299 296 293 291 291 290 288 289 290 289 288 286 284 283 283 283 284 286 288 291 292 291 293 293
1 359 357 355 351 348 345 342 338 335 335 334 331 328 324 322 320 316 312 307 300 293 288 286 284 285 284 285 287 287 286 284 282 280 280 280 282 282 283 286 288 288 287
358 357 355 352 349 347 345 342 339 336 334 331 328 323 318 315 314 313 311 308 306 299 293 287 283 279 279 282 283 283 283 283 281 279 279 278 278 278 279 280 282 284 285
353 353 350 348 345 343 341 339 336 333 331 330 329 326 324 320 315 311 307 304 303 301 297 293 286 280 276 275 276 281 280 279 277 277 277 277 276 276 276 275 277 278 280
348 346 345 343 342 340 337 335 333 330 327 325 325 324 323 321 318 314 311 308 304 300 295 293 289 283 277 275 270 270 277 274 280 279 274 275 275 274 274 273 273 274 274
340 340 340 339 338 337 335 331 327 324 321 320 319 320 318 316 315 312 310 308 306 303 298 295 291 285 281 275 273 269 269 275 276 275 280 277 277 275 273 272 272 271 271
336 336 335 335 333 332 330 328 326 323 320 318 316 315 315 314 312 310 309 307 303 300 297 293 290 286 282 278 274 272 270 266 267 270 270 279 277 276 274 271 270 270 270
338 336 333 331 330 329 328 326 324 322 320 316 314 312 312 310 309 307 305 304 302 299 296 292 289 286 283 280 278 274 270 267 265 265 264 266 271 275 273 273 270 270 269